Content
SEND FEEDBACK

Daily
Averages
Monthly
Summary
United States of America

HENNESSEY, OKLAHOMA


Home > North America > United States > Oklahoma
Elevation: 1142 feet     Latitude: 36 05N     Longitude: 097 53W

WEATHER
 
SELECT A DAY
Number of Records: 29,440;   Date Range: 9/1/12 - 10/20/14
 
SHARE

PRINT THIS DATA

[ ← Previous Day ]
WEATHER ALMANAC - FEBRUARY 13, 2013
[ Next Day → ]
[ °C ]   °F
Weather ElementAverageHighLow
Temperature34.1 °F51.8 °F (2:50 pm)24.8 °F (6:50 am)
Dewpoint31 °F33.8 °F (11:50 am)24.8 °F (6:50 am)
Humidity90.5 %100 % (12:35 am)44 % (3:50 pm)
Barometer29.99 in30.05 in (8:50 am)29.95 in (4:50 pm)
Wind Speed6.7 mph17.3 mph (3:50 pm)
Weather ElementAverage
Visibility7 mi
Wind DirectionSW (223.9 °)

Weather ElementTotal
Precipitation---
Heating Degree Days26.7 (Base 65)
Averaged from 38 records on February 13, 2013
WEATHER CONDITIONS BREAKOUT
WIND DIRECTION BREAKOUT
WEATHER BY HOUR - FEBRUARY 13, 2013
[ °C ]   °F
Local TimeTemperatureDewpointHumidityBarometerVisibilityWind DirectionWind SpeedGust SpeedPrecipitationEventsConditions
12:35 AM32.0 °F32.0 °F100 %30.03 in1.0 miWest (270°)4.6 mphOvercast
12:55 AM32.0 °F32.0 °F100 %30.03 in1.0 miWest (280°)4.6 mphOvercast
1:15 AM32.0 °F32.0 °F100 %30.03 in3.0 miWest (270°)3.5 mphScattered Clouds
1:35 AM32.0 °F32.0 °F100 %30.03 in3.0 miNW (310°)5.8 mphMostly Cloudy
1:55 AM32.0 °F32.0 °F100 %30.04 in2.0 miWest (280°)6.9 mphOvercast
2:15 AM32.0 °F32.0 °F100 %30.04 in5.0 miWNW (290°)5.8 mphScattered Clouds
2:35 AM30.2 °F30.2 °F100 %30.03 in7.0 miWest (280°)6.9 mphClear
2:55 AM30.2 °F30.2 °F100 %30.03 in7.0 miWest (260°)5.8 mphClear
3:15 AM30.2 °F30.2 °F100 %30.02 in7.0 miWSW (240°)4.6 mphClear
3:35 AM28.4 °F28.4 °F100 %30.02 in0.8 miSW (220°)3.5 mphOvercast
3:55 AM28.4 °F28.4 °F100 %30.01 in0.5 miSouth (180°)4.6 mphFogLight Freezing Fog
4:15 AM30.2 °F30.2 °F100 %30.00 in0.2 miSSW (200°)5.8 mphFogLight Freezing Fog
4:35 AM28.4 °F28.4 °F100 %29.99 in0.5 miSW (220°)4.6 mphFogLight Freezing Fog
4:55 AM28.4 °F28.4 °F100 %29.99 in0.5 miSSW (200°)4.6 mphFogLight Freezing Fog
6:50 AM24.8 °F24.8 °F100 %30.03 in7.0 miSouth (180°)4.6 mphClear
7:50 AM24.8 °F24.8 °F100 %30.03 in5.0 miCalmClear
8:50 AM28.4 °F28.4 °F100 %30.05 in7.0 miWSW (240°)9.2 mphClear
11:50 AM39.2 °F33.8 °F81 %30.02 in10.0 miWSW (240°)11.5 mphClear
12:50 PM42.8 °F33.8 °F70 %30.01 in10.0 miWest (260°)11.5 mphClear
1:50 PM48.2 °F33.8 °F58 %29.98 in10.0 miWSW (250°)16.1 mphClear
2:50 PM51.8 °F32.0 °F47 %29.97 in10.0 miWSW (250°)10.4 mphClear
3:50 PM51.8 °F30.2 °F44 %29.96 in10.0 miWSW (250°)17.3 mphClear
4:50 PM50.0 °F30.2 °F47 %29.95 in10.0 miSW (230°)15.0 mphClear
6:50 PM39.2 °F32.0 °F75 %29.95 in10.0 miSSW (200°)6.9 mphPartly Cloudy
7:50 PM35.6 °F32.0 °F87 %29.96 in10.0 miSouth (190°)5.8 mphPartly Cloudy
8:15 PM33.8 °F32.0 °F93 %29.96 in10.0 miSSW (200°)3.5 mphClear
8:35 PM33.8 °F32.0 °F93 %29.96 in10.0 miSSW (200°)4.6 mphClear
8:50 PM33.8 °F32.0 °F93 %29.97 in10.0 miSSW (200°)5.8 mphPartly Cloudy
8:55 PM33.8 °F32.0 °F93 %29.96 in10.0 miSSW (200°)4.6 mphClear
9:15 PM32.0 °F32.0 °F100 %29.96 in10.0 miSouth (180°)5.8 mphClear
9:35 PM32.0 °F32.0 °F100 %29.96 in10.0 miSouth (190°)4.6 mphClear
9:55 PM32.0 °F32.0 °F100 %29.96 in10.0 miSSW (200°)5.8 mphClear
10:15 PM33.8 °F32.0 °F93 %29.96 in10.0 miSW (220°)8.1 mphClear
10:35 PM33.8 °F32.0 °F93 %29.96 in10.0 miSW (230°)9.2 mphClear
10:55 PM33.8 °F32.0 °F93 %29.96 in10.0 miSW (230°)5.8 mphClear
11:15 PM33.8 °F32.0 °F93 %29.96 in10.0 miSSW (210°)5.8 mphClear
11:35 PM33.8 °F32.0 °F93 %29.96 in10.0 miSSW (210°)4.6 mphClear
11:55 PM32.0 °F30.2 °F93 %29.96 in10.0 miWSW (250°)5.8 mphClear
Hourly data recorded from KWDG, located miles away from Hennessey, Oklahoma







STORIES FROM OUR PARTNERS